Location: Azul
(36.7830°S, 59.8500°W)
Time: 03:56:46
(UTC-03:00)

ISS - Pass Details

Date: 12 October 2019
Orbit: 411 x 421 km, 51.6° (Epoch: 15 October)

Event Time Altitude Azimuth Distance (km) Brightness Sun altitude
Exits shadow 04:35:08 - 209° (SSW) 2,024 -0.3 -20.7°
Reaches altitude 10° 04:37:09 10° 185° (S) 1,533 -0.7 -20.3°
Maximum altitude 04:38:39 12° 159° (SSE) 1,395 -0.5 -20.0°
Drops below altitude 10° 04:40:10 10° 133° (SE) 1,530 0.2 -19.8°
Sets 04:43:20 0° 101° (ESE) 2,392 1.5 -19.2°
